This is the latest recevied weather packets stored in our database for station/object KN6WGU. If no packets are shown the sender has not sent any weather packets the latest 10 day(s).
| Time | Temp. | Humidity | Pressure | Rain* | Wind** | Luminosity | Snow |
|---|---|---|---|---|---|---|---|
| 1788537555 | 22.78° C | 99% | 1010.4 hPa | 7.11 mm | - | 43 W/m² | - |
| 1788537250 | 22.78° C | 99% | 1010.7 hPa | 0 mm | - | 35 W/m² | - |
| 1788536949 | 22.22° C | 99% | 1011 hPa | 0 mm | - | 29 W/m² | - |
| 1788536643 | 22.22° C | 99% | 1010.7 hPa | 0 mm | - | 28 W/m² | - |
| 1788536339 | 22.22° C | 99% | 1010.9 hPa | 1.78 mm | - | 26 W/m² | - |
| 1788536034 | 22.22° C | 99% | 1011.1 hPa | 1.78 mm | - | 35 W/m² | - |
| 1788535730 | 21.67° C | 99% | 1010.8 hPa | 1.78 mm | - | 58 W/m² | - |
| 1788535429 | 21.67° C | 99% | 1010.6 hPa | 0 mm | - | 43 W/m² | - |
| 1788535124 | 21.67° C | 99% | 1010.4 hPa | 0 mm | - | 42 W/m² | - |
| 1788534824 | 21.67° C | 99% | 1010.3 hPa | 0 mm | - | 55 W/m² | - |
| 1788534520 | 21.67° C | 99% | 1010.3 hPa | 0 mm | - | 80 W/m² | - |
| 1788534215 | 21.67° C | 99% | 1010.3 hPa | 0 mm | - | 91 W/m² | - |
| 1788533912 | 21.67° C | 99% | 1009.9 hPa | 0 mm | - | 43 W/m² | - |
| 1788533609 | 21.67° C | 99% | 1009.3 hPa | 0 mm | - | 40 W/m² | - |
| 1788533304 | 21.67° C | 99% | 1009.4 hPa | 0 mm | - | 39 W/m² | - |
| 1788533000 | 21.67° C | 99% | 1009.1 hPa | 0 mm | - | 45 W/m² | - |
| 1788532695 | 21.67° C | 99% | 1009.1 hPa | 0 mm | - | 50 W/m² | - |
| 1788532392 | 21.67° C | 99% | 1009 hPa | 0 mm | - | 56 W/m² | - |
| 1788532088 | 21.67° C | 99% | 1008.8 hPa | 0 mm | - | 86 W/m² | - |
| 1788531783 | 21.67° C | 99% | 1008.7 hPa | 0 mm | - | 87 W/m² | - |
| 1788531478 | 21.67° C | 99% | 1009.3 hPa | 0 mm | - | 93 W/m² | - |
| 1788531173 | 21.67° C | 99% | 1009.2 hPa | 3.05 mm | - | 90 W/m² | - |
| 1788530868 | 21.67° C | 99% | 1009 hPa | 6.1 mm | - | 69 W/m² | - |
| 1788530564 | 21.11° C | 99% | 1009.2 hPa | 4.83 mm | - | 25 W/m² | - |
| 1788530263 | 21.11° C | 99% | 1009.2 hPa | 3.05 mm | - | 11 W/m² | - |
* Rain latest hour (hover to see other rain measurements)
** Current wind speed in m/s (hover to see current wind gust speed)